Natchitoches, LA

6:42 AM CDT on August 19, 2017 (GMT -0500)
Natchitoches Regional

Weather History for KIER - February, 2013

Change the Weather History Date:

Saturday, February 16, 2013

  Actual Average Record
Temperature  
Mean Temperature 42 °F -  
Max Temperature 52 °F 65 °F 82 °F (1945)
Min Temperature 31 °F 42 °F 26 °F (1951)
Degree Days  
Heating Degree Days 23    
Moisture  
Dew Point 27 °F    
Average Humidity 61    
Maximum Humidity 94    
Minimum Humidity 34    
Precipitation  
Precipitation 0.00 in - - ()
Sea Level Pressure  
Sea Level Pressure 30.31 in    
Wind  
Wind Speed 7 mph (NW)    
Max Wind Speed 20 mph    
Max Gust Speed 29 mph    
Visibility 10 miles    
Events      
Averages and records for this station are not official NWS values.
T = Trace of Precipitation, MM = Missing Value Source: NWS Daily Summary

Daily Weather History Graph

Daily Weather History Graph

Search for Another Location

Airport or City:

Trip Planner

Search our weather history database for the weather conditions in past years. The results will help you decide how hot, cold, wet, or windy it might be!

Date:

Astronomy

Feb. 16, 2013 Rise Set
Actual Time 6:53 AM CST 6:00 PM CST
Civil Twilight 6:28 AM CST 6:25 PM CST
Nautical Twilight 5:59 AM CST 6:53 PM CST
Astronomical Twilight 5:31 AM CST 7:22 PM CST
Moon 10:33 AM CST (2/16) No Moon Set
Length of Visible Light 11h 56m
Length of Day
11h 07m
Waxing Crescent, 39% of the Moon is Illuminated
Feb 16
Waxing Crescent
Feb 17
First Quarter
Feb 25
Full
Mar 4
Last Quarter
Mar 11
New

Hourly Weather History & Observations

Time (CST) Temp. Windchill Dew Point Humidity Pressure Visibility Wind Dir Wind Speed Gust Speed Precip Events Conditions
12:15 AM 43.2 °F 37.4 °F 26.1 °F 51% 30.31 in 10.0 mi NW 10.4 mph 16.1 mph N/A   Scattered Clouds
12:35 AM 43.0 °F 37.7 °F 25.7 °F 51% 30.31 in 10.0 mi NNW 9.2 mph - N/A   Mostly Cloudy
12:55 AM 42.4 °F 38.1 °F 26.2 °F 53% 30.32 in 10.0 mi NNW 6.9 mph - N/A   Scattered Clouds
1:15 AM 41.5 °F 36.4 °F 26.2 °F 55% 30.31 in 10.0 mi NNW 8.1 mph - N/A   Clear
1:35 AM 40.3 °F 36.3 °F 26.1 °F 57% 30.31 in 10.0 mi NNW 5.8 mph - N/A   Clear
1:55 AM 39.0 °F 34.8 °F 27.0 °F 62% 30.30 in 10.0 mi NW 5.8 mph - N/A   Clear
2:15 AM 38.5 °F 32.7 °F 26.4 °F 62% 30.31 in 10.0 mi NW 8.1 mph - N/A   Clear
2:35 AM 38.3 °F 34.8 °F 26.2 °F 62% 30.30 in 10.0 mi NNW 4.6 mph - N/A   Clear
2:55 AM 38.7 °F 31.8 °F 25.5 °F 59% 30.31 in 10.0 mi NW 10.4 mph - N/A   Clear
3:15 AM 37.8 °F 30.7 °F 25.5 °F 61% 30.32 in 10.0 mi NW 10.4 mph - N/A   Clear
3:35 AM 37.8 °F 32.5 °F 25.3 °F 61% 30.32 in 10.0 mi NNW 6.9 mph - N/A   Clear
3:55 AM 36.9 °F 31.4 °F 25.0 °F 62% 30.32 in 10.0 mi NNW 6.9 mph - N/A   Clear
4:15 AM 36.7 °F 32.0 °F 25.3 °F 64% 30.33 in 10.0 mi NNW 5.8 mph - N/A   Clear
4:35 AM 36.5 °F 29.7 °F 24.8 °F 63% 30.34 in 10.0 mi NW 9.2 mph - N/A   Clear
4:55 AM 35.8 °F 30.9 °F 24.6 °F 64% 30.34 in 10.0 mi NNW 5.8 mph - N/A   Clear
5:15 AM 35.1 °F 31.0 °F 25.3 °F 68% 30.34 in 10.0 mi NNW 4.6 mph - N/A   Clear
5:35 AM 34.7 °F 30.6 °F 25.3 °F 69% 30.34 in 10.0 mi NNW 4.6 mph - N/A   Scattered Clouds
5:55 AM 34.3 °F 29.2 °F 25.3 °F 70% 30.35 in 10.0 mi NW 5.8 mph - N/A   Scattered Clouds
6:15 AM 35.4 °F 29.7 °F 24.6 °F 65% 30.35 in 10.0 mi NW 6.9 mph - N/A   Mostly Cloudy
6:35 AM 35.2 °F 31.2 °F 24.6 °F 65% 30.35 in 10.0 mi WNW 4.6 mph - N/A   Mostly Cloudy
6:55 AM 33.3 °F 27.9 °F 24.4 °F 70% 30.35 in 10.0 mi WNW 5.8 mph - N/A   Scattered Clouds
7:15 AM 34.0 °F 31.0 °F 25.7 °F 72% 30.35 in 10.0 mi West 3.5 mph - N/A   Mostly Cloudy
7:35 AM 33.6 °F 28.4 °F 26.4 °F 75% 30.36 in 10.0 mi West 5.8 mph - N/A   Mostly Cloudy
7:55 AM 35.4 °F 32.6 °F 26.4 °F 70% 30.37 in 10.0 mi WNW 3.5 mph - N/A   Clear
8:15 AM 37.6 °F 33.1 °F 25.0 °F 60% 30.38 in 10.0 mi WNW 5.8 mph - N/A   Clear
8:35 AM 38.8 °F 34.6 °F 26.1 °F 60% 30.39 in 10.0 mi WNW 5.8 mph - N/A   Clear
8:55 AM 40.1 °F 35.3 °F 25.3 °F 56% 30.40 in 10.0 mi WNW 6.9 mph - N/A   Clear
9:15 AM 41.5 °F 36.4 °F 23.9 °F 50% 30.39 in 10.0 mi NW 8.1 mph - N/A   Clear
9:35 AM 42.8 °F 38.0 °F 22.6 °F 45% 30.39 in 10.0 mi NW 8.1 mph - N/A   Clear
12:15 PM 49.3 °F - 28.2 °F 44% 30.34 in 10.0 mi NW 19.6 mph 28.8 mph N/A   Clear
12:35 PM 49.8 °F - 28.8 °F 44% 30.33 in 10.0 mi NNW 17.3 mph 23.0 mph N/A   Scattered Clouds
12:55 PM 49.8 °F - 28.4 °F 44% 30.33 in 10.0 mi NNW 17.3 mph 24.2 mph N/A   Scattered Clouds
1:15 PM 50.2 °F - 28.2 °F 43% 30.32 in 10.0 mi NW 13.8 mph 23.0 mph N/A   Clear
1:35 PM 51.6 °F - 29.5 °F 43% 30.31 in 10.0 mi NW 13.8 mph 21.9 mph N/A   Scattered Clouds
1:55 PM 51.6 °F - 28.8 °F 41% 30.30 in 10.0 mi NW 15.0 mph 21.9 mph N/A   Scattered Clouds
2:15 PM 52.0 °F - 28.2 °F 40% 30.29 in 10.0 mi WNW 15.0 mph 23.0 mph N/A   Clear
2:35 PM 52.3 °F - 28.4 °F 40% 30.28 in 10.0 mi NW 11.5 mph 18.4 mph N/A   Clear
2:55 PM 52.7 °F - 28.8 °F 40% 30.28 in 10.0 mi NW 12.7 mph - N/A   Scattered Clouds
3:15 PM 52.5 °F - 27.7 °F 38% 30.27 in 10.0 mi NNW 9.2 mph 17.3 mph N/A   Clear
3:35 PM 52.7 °F - 26.6 °F 36% 30.27 in 10.0 mi NNW 12.7 mph 17.3 mph N/A   Clear
3:55 PM 52.3 °F - 25.7 °F 36% 30.27 in 10.0 mi NW 9.2 mph 18.4 mph N/A   Clear
4:15 PM 52.0 °F - 25.0 °F 35% 30.26 in 10.0 mi NNW 11.5 mph 17.3 mph N/A   Clear
4:35 PM 52.0 °F - 24.8 °F 35% 30.26 in 10.0 mi NNW 12.7 mph - N/A   Clear
4:55 PM 51.4 °F - 24.4 °F 35% 30.26 in 10.0 mi NNW 6.9 mph - N/A   Clear
5:15 PM 50.9 °F - 23.0 °F 34% 30.26 in 10.0 mi NW 6.9 mph - N/A   Clear
5:35 PM 49.6 °F - 23.7 °F 36% 30.26 in 10.0 mi NNW 5.8 mph - N/A   Clear
5:55 PM 47.7 °F - 23.9 °F 39% 30.26 in 10.0 mi NNW 4.6 mph - N/A   Clear
6:15 PM 46.0 °F 44.8 °F 24.6 °F 43% 30.27 in 10.0 mi North 3.5 mph - N/A   Clear
6:35 PM 44.6 °F - 27.7 °F 52% 30.27 in 10.0 mi Calm Calm - N/A   Clear
6:55 PM 42.1 °F - 29.5 °F 61% 30.27 in 10.0 mi Calm Calm - N/A   Clear
7:15 PM 39.9 °F - 32.4 °F 74% 30.27 in 10.0 mi Calm Calm - N/A   Clear
7:35 PM 38.3 °F - 32.0 °F 78% 30.27 in 10.0 mi Calm Calm - N/A   Clear
7:55 PM 36.9 °F - 32.9 °F 86% 30.28 in 10.0 mi Calm Calm - N/A   Clear
8:15 PM 36.1 °F - 30.9 °F 81% 30.28 in 10.0 mi Calm Calm - N/A   Clear
8:35 PM 35.4 °F - 31.1 °F 84% 30.28 in 10.0 mi Calm Calm - N/A   Clear
8:55 PM 35.2 °F - 31.8 °F 87% 30.28 in 10.0 mi Calm Calm - N/A   Clear
9:15 PM 34.3 °F - 31.5 °F 89% 30.28 in 10.0 mi Calm Calm - N/A   Clear
9:35 PM 33.8 °F - 31.5 °F 91% 30.29 in 10.0 mi Calm Calm - N/A   Clear
9:55 PM 33.6 °F - 31.6 °F 92% 30.29 in 10.0 mi Calm Calm - N/A   Clear
10:15 PM 33.1 °F - 30.9 °F 92% 30.29 in 10.0 mi Calm Calm - N/A   Clear
10:35 PM 32.2 °F - 30.4 °F 93% 30.29 in 10.0 mi Calm Calm - N/A   Clear
10:55 PM 32.2 °F - 30.7 °F 94% 30.28 in 10.0 mi Calm Calm - N/A   Clear
11:15 PM 32.0 °F - 30.2 °F 93% 30.28 in 10.0 mi Calm Calm - N/A   Clear
11:35 PM 32.0 °F - 30.4 °F 94% 30.28 in 10.0 mi Calm Calm - N/A   Clear
11:55 PM 31.3 °F - 29.3 °F 92% 30.28 in 10.0 mi Calm Calm - N/A   Clear